When you browse on this site, cookies collect data to enhance your experience and personalize the content and advertising you see.
Visit our Privacy Policy to learn more. By continuing to use the site, you agree to this use of cookies and data.
  • In Portugal
  • List of Countries
  • For 7 days
  • Water Temperature
  • Satellite Maps
  • Weather Map
  • Weather Widgets
  • user-avatar
    Login

    Hourly Weather Shodnevo

    Today, 26 April, Friday

    Time Temperature Precipitation Wind Pressure Humidity
    00:00 +8°C° 0 mm 2 mps 741 mmHg 67%
    01:00 +8°C° 0 mm 2 mps 741 mmHg 66%
    02:00 +7°C° 0 mm 2 mps 741 mmHg 65%
    03:00 +7°C° 0 mm 2 mps 741 mmHg 63%
    04:00 +7°C° 0 mm 2 mps 742 mmHg 63%
    05:00 +7°C° 0 mm 2 mps 742 mmHg 62%
    06:00 +8°C° 0 mm 1 mps 742 mmHg 62%
    07:00 +8°C° 0 mm 2 mps 742 mmHg 57%
    08:00 +9°C° 0 mm 2 mps 742 mmHg 52%
    09:00 +10°C° 0 mm 3 mps 742 mmHg 47%
    10:00 +11°C° 0 mm 3 mps 743 mmHg 45%
    11:00 +11°C° 0 mm 3 mps 743 mmHg 43%
    12:00 +11°C° 0 mm 3 mps 743 mmHg 41%
    13:00 +12°C° 0 mm 4 mps 743 mmHg 40%
    14:00 +12°C° 0 mm 4 mps 742 mmHg 40%
    15:00 +12°C° 0 mm 4 mps 742 mmHg 39%
    16:00 +12°C° 0 mm 3 mps 742 mmHg 43%
    17:00 +11°C° 0 mm 3 mps 742 mmHg 47%
    18:00 +12°C° 0 mm 2 mps 742 mmHg 51%
    19:00 +9°C° 0 mm 2 mps 742 mmHg 55%
    20:00 +8°C° 0 mm 2 mps 742 mmHg 58%
    21:00 +8°C° 0 mm 1 mps 742 mmHg 62%
    22:00 +8°C° 0 mm 1 mps 742 mmHg 64%
    23:00 +6°C° 0 mm 2 mps 742 mmHg 65%

    Tomorrow, 27 April, Saturday

    Time Temperature Precipitation Wind Pressure Humidity
    00:00 +6°C° 0 mm 2 mps 742 mmHg 66%
    01:00 +6°C° 0 mm 1 mps 742 mmHg 67%
    02:00 +6°C° 0 mm 1 mps 742 mmHg 68%
    03:00 +6°C° 0 mm 1 mps 742 mmHg 69%
    04:00 +6°C° 0 mm 1 mps 742 mmHg 67%
    05:00 +7°C° 0 mm 1 mps 742 mmHg 64%
    06:00 +8°C° 0 mm 1 mps 742 mmHg 62%
    07:00 +9°C° 0 mm 2 mps 742 mmHg 58%
    08:00 +11°C° 0 mm 4 mps 741 mmHg 53%
    09:00 +12°C° 0 mm 5 mps 741 mmHg 49%
    10:00 +14°C° 0 mm 5 mps 741 mmHg 46%
    11:00 +15°C° 0 mm 6 mps 740 mmHg 44%
    12:00 +16°C° 0 mm 7 mps 740 mmHg 42%
    13:00 +16°C° 0 mm 7 mps 739 mmHg 39%
    14:00 +17°C° 0 mm 7 mps 739 mmHg 37%
    15:00 +17°C° 0 mm 7 mps 738 mmHg 35%
    16:00 +16°C° 0 mm 6 mps 738 mmHg 38%
    17:00 +15°C° 0 mm 4 mps 737 mmHg 42%
    18:00 +14°C° 0 mm 3 mps 737 mmHg 45%
    19:00 +13°C° 0 mm 3 mps 736 mmHg 51%
    20:00 +12°C° 0 mm 3 mps 736 mmHg 57%
    21:00 +11°C° 0 mm 3 mps 736 mmHg 63%
    22:00 +10°C° 0 mm 4 mps 735 mmHg 69%
    23:00 +10°C° 0 mm 4 mps 735 mmHg 76%

    Day after tomorrow, 28 April, Sunday

    Time Temperature Precipitation Wind Pressure Humidity
    00:00 +10°C° 0 mm 4 mps 734 mmHg 82%
    01:00 +9°C° 0 mm 5 mps 734 mmHg 84%
    02:00 +8°C° 0 mm 5 mps 733 mmHg 85%
    03:00 +8°C° 0 mm 5 mps 732 mmHg 87%
    04:00 +9°C° 0 mm 6 mps 732 mmHg 82%
    05:00 +9°C° 0 mm 6 mps 731 mmHg 76%
    06:00 +10°C° 0 mm 7 mps 731 mmHg 71%
    07:00 +12°C° 0 mm 7 mps 731 mmHg 65%
    08:00 +14°C° 0 mm 7 mps 731 mmHg 60%
    09:00 +16°C° 0 mm 8 mps 731 mmHg 54%
    10:00 +13°C° 0.7 mm 8 mps 731 mmHg 61%
    11:00 +11°C° 0.7 mm 8 mps 731 mmHg 68%
    12:00 +9°C° 0.7 mm 8 mps 731 mmHg 75%
    13:00 +6°C° 1 mm 7 mps 731 mmHg 77%
    14:00 +4°C° 1 mm 7 mps 732 mmHg 79%
    15:00 +2°C° 1 mm 6 mps 732 mmHg 80%
    16:00 +2°C° 0.2 mm 6 mps 733 mmHg 79%
    17:00 +2°C° 0.2 mm 6 mps 733 mmHg 78%
    18:00 +2°C° 0.2 mm 6 mps 734 mmHg 76%
    19:00 +1°C° 0 mm 6 mps 735 mmHg 77%
    20:00 +1°C° 0 mm 5 mps 735 mmHg 77%
    21:00 0°C° 0 mm 5 mps 736 mmHg 78%
    22:00 0°C° 0 mm 5 mps 736 mmHg 78%
    23:00 -1°C° 0 mm 5 mps 737 mmHg 79%

    29 April, Monday

    Time Temperature Precipitation Wind Pressure Humidity
    00:00 -1°C° 0 mm 5 mps 737 mmHg 79%
    01:00 -2°C° 0 mm 5 mps 737 mmHg 81%
    02:00 -3°C° 0 mm 4 mps 737 mmHg 83%
    03:00 -3°C° 0 mm 4 mps 737 mmHg 85%
    04:00 -4°C° 0 mm 5 mps 738 mmHg 83%
    05:00 -4°C° 0 mm 5 mps 738 mmHg 82%
    06:00 -2°C° 0 mm 5 mps 738 mmHg 80%
    07:00 -1°C° 0 mm 5 mps 739 mmHg 75%
    08:00 0°C° 0 mm 5 mps 739 mmHg 69%
    09:00 +1°C° 0 mm 5 mps 739 mmHg 64%
    10:00 +2°C° 0.1 mm 5 mps 739 mmHg 59%
    11:00 +2°C° 0.1 mm 5 mps 739 mmHg 54%
    12:00 +3°C° 0.1 mm 5 mps 739 mmHg 49%
    13:00 +3°C° 0.2 mm 5 mps 739 mmHg 48%
    14:00 +3°C° 0.2 mm 5 mps 739 mmHg 47%
    15:00 +3°C° 0.2 mm 5 mps 739 mmHg 46%
    16:00 +2°C° 0.1 mm 5 mps 739 mmHg 50%
    17:00 +2°C° 0.1 mm 5 mps 739 mmHg 54%
    18:00 +1°C° 0.1 mm 5 mps 740 mmHg 57%
    19:00 0°C° 0 mm 4 mps 740 mmHg 62%
    20:00 -1°C° 0 mm 4 mps 740 mmHg 67%
    21:00 -1°C° 0 mm 3 mps 741 mmHg 71%
    22:00 -1°C° 0 mm 3 mps 741 mmHg 73%
    23:00 -2°C° 0 mm 3 mps 741 mmHg 74%

    30 April, Tuesday

    Time Temperature Precipitation Wind Pressure Humidity
    00:00 -4°C° 0 mm 3 mps 741 mmHg 76%
    01:00 -4°C° 0 mm 3 mps 741 mmHg 76%
    02:00 -3°C° 0 mm 2 mps 742 mmHg 76%
    03:00 -3°C° 0 mm 2 mps 742 mmHg 76%
    04:00 -4°C° 0 mm 3 mps 742 mmHg 71%
    05:00 -2°C° 0 mm 3 mps 742 mmHg 66%
    06:00 -1°C° 0 mm 3 mps 743 mmHg 61%
    07:00 0°C° 0 mm 3 mps 743 mmHg 54%
    08:00 0°C° 0 mm 4 mps 743 mmHg 48%
    09:00 +1°C° 0 mm 4 mps 743 mmHg 41%
    10:00 +3°C° 0 mm 4 mps 743 mmHg 40%
    11:00 +3°C° 0 mm 4 mps 743 mmHg 38%
    12:00 +4°C° 0 mm 4 mps 743 mmHg 37%
    13:00 +4°C° 0 mm 4 mps 742 mmHg 37%
    14:00 +4°C° 0 mm 4 mps 742 mmHg 38%
    15:00 +5°C° 0 mm 4 mps 742 mmHg 38%
    16:00 +4°C° 0 mm 3 mps 742 mmHg 41%
    17:00 +4°C° 0 mm 3 mps 742 mmHg 44%
    18:00 +4°C° 0 mm 2 mps 742 mmHg 47%
    19:00 +3°C° 0 mm 2 mps 742 mmHg 49%
    20:00 +3°C° 0 mm 1 mps 742 mmHg 51%
    21:00 +2°C° 0 mm 1 mps 742 mmHg 54%
    22:00 +2°C° 0 mm 1 mps 742 mmHg 54%
    23:00 +2°C° 0 mm 1 mps 742 mmHg 54%

    1 May, Wednesday

    Time Temperature Precipitation Wind Pressure Humidity
    00:00 +1°C° 0 mm 1 mps 742 mmHg 55%
    01:00 -1°C° 0 mm 2 mps 742 mmHg 56%
    02:00 -1°C° 0 mm 2 mps 742 mmHg 57%
    03:00 -1°C° 0 mm 2 mps 742 mmHg 57%
    04:00 +1°C° 0 mm 2 mps 742 mmHg 55%
    05:00 +1°C° 0 mm 3 mps 742 mmHg 53%
    06:00 +2°C° 0 mm 3 mps 742 mmHg 50%
    07:00 +3°C° 0 mm 3 mps 742 mmHg 47%
    08:00 +5°C° 0 mm 4 mps 742 mmHg 44%
    09:00 +6°C° 0 mm 4 mps 742 mmHg 41%
    10:00 +7°C° 0 mm 4 mps 742 mmHg 41%
    11:00 +7°C° 0 mm 4 mps 742 mmHg 40%
    12:00 +7°C° 0 mm 4 mps 742 mmHg 40%
    13:00 +7°C° 0 mm 4 mps 742 mmHg 40%
    14:00 +8°C° 0 mm 4 mps 741 mmHg 40%
    15:00 +8°C° 0 mm 4 mps 741 mmHg 40%
    16:00 +7°C° 0 mm 4 mps 741 mmHg 43%
    17:00 +8°C° 0 mm 3 mps 741 mmHg 46%
    18:00 +8°C° 0 mm 2 mps 741 mmHg 48%
    19:00 +7°C° 0 mm 2 mps 741 mmHg 50%
    20:00 +6°C° 0 mm 2 mps 741 mmHg 51%
    21:00 +5°C° 0 mm 2 mps 741 mmHg 53%
    22:00 +5°C° 0 mm 2 mps 741 mmHg 56%
    23:00 +5°C° 0 mm 2 mps 741 mmHg 59%
    Show more